FW1458 Weather Reports


Display with metric or nautical units.
time (UTC)temp
F
wind
direction
speed
MPH
gust
MPH
rain 1hr
in
rain 24hr
in
rain mn
in
humidity
%
barometer
mb
20260905234544 102 98 2.0 4.0 0.00 0.00 0.00 35 1009.5
20260905233044 103 157 2.0 5.0 0.00 0.00 0.00 35 1009.3
20260905231543 103 102 2.0 7.0 0.00 0.00 0.00 36 1009.3
20260905230046 103 155 4.0 8.0 0.00 0.00 0.00 36 1009.1
20260905224551 103 234 1.0 7.0 0.00 0.00 0.00 36 1009.2
20260905223044 103 81 2.0 7.0 0.00 0.00 0.00 36 1009.2
20260905221546 103 93 3.0 7.0 0.00 0.00 0.00 37 1009.4
20260905220037 103 74 2.0 7.0 0.00 0.00 0.00 38 1009.5
20260905214536 103 128 2.0 6.0 0.00 0.00 0.00 37 1009.8
20260905213036 104 163 3.0 7.0 0.00 0.00 0.00 36 1009.9
20260905211542 103 85 2.0 9.0 0.00 0.00 0.00 38 1010.2
20260905210033 102 67 2.0 7.0 0.00 0.00 0.00 39 1010.3
20260905204529 103 24 4.0 8.0 0.00 0.00 0.00 39 1010.5
20260905203031 103 157 3.0 8.0 0.00 0.00 0.00 38 1010.8
20260905201524 103 176 3.0 7.0 0.00 0.00 0.00 39 1010.9
20260905200025 103 173 1.0 5.0 0.00 0.00 0.00 39 1011.2
20260905194519 102 188 2.0 8.0 0.00 0.00 0.00 39 1011.4
20260905193018 102 12 2.0 6.0 0.00 0.00 0.00 39 1011.6
20260905191518 103 180 4.0 9.0 0.00 0.00 0.00 39 1012.0
20260905190016 102 178 6.0 9.0 0.00 0.00 0.00 40 1012.1
20260905184513 101 130 1.0 9.0 0.00 0.00 0.00 41 1012.1
20260905183012 100 180 4.0 14.0 0.00 0.00 0.00 43 1012.3
20260905181512 101 224 3.0 9.0 0.00 0.00 0.00 42 1012.5
20260905180008 99 76 2.0 8.0 0.00 0.00 0.00 43 1012.6
20260905174508 100 249 4.0 8.0 0.00 0.00 0.00 43 1012.7
20260905173008 100 200 2.0 6.0 0.00 0.00 0.00 43 1013.0
20260905171516 100 151 2.0 10.0 0.00 0.00 0.00 44 1013.2
20260905170101 99 185 2.0 6.0 0.00 0.00 0.00 45 1013.3
20260905164600 98 279 3.0 6.0 0.00 0.00 0.00 45 1013.5
20260905163054 98 259 2.0 5.0 0.00 0.00 0.00 47 1013.5
20260905161550 97 184 3.0 7.0 0.00 0.00 0.00 47 1013.6
20260905160051 96 261 1.0 5.0 0.00 0.00 0.00 49 1013.7
20260905154552 95 259 1.0 8.0 0.00 0.00 0.00 51 1013.5
20260905153037 94 180 2.0 5.0 0.00 0.00 0.00 52 1013.5
20260905151536 93 232 3.0 5.0 0.00 0.00 0.00 54 1013.5
20260905150030 91 265 2.0 6.0 0.00 0.00 0.00 56 1013.4
20260905144537 90 259 2.0 6.0 0.00 0.00 0.00 59 1013.5
20260905143023 88 173 1.0 5.0 0.00 0.00 0.00 63 1013.1
20260905141523 86 186 0.0 3.0 0.00 0.00 0.00 66 1013.1
20260905140016 84 170 2.0 5.0 0.00 0.00 0.00 68 1013.3
20260905134511 83 183 1.0 4.0 0.00 0.00 0.00 71 1013.1
20260905133010 80 147 2.0 5.0 0.00 0.00 0.00 74 1013.0
20260905131510 78 171 1.0 5.0 0.00 0.00 0.00 79 1012.9
20260905130011 76 165 0.0 2.0 0.00 0.00 0.00 82 1013.0
20260905124508 75 157 0.0 2.0 0.00 0.00 0.00 82 1012.8
20260905123005 75 145 0.0 2.0 0.00 0.00 0.00 82 1012.5
20260905121506 75 131 0.0 0.0 0.00 0.00 0.00 82 1012.5
20260905120002 75 131 0.0 1.0 0.00 0.00 0.00 82 1012.6
20260905114501 76 131 0.0 1.0 0.00 0.00 0.00 80 1012.5
20260905113100 76 131 0.0 1.0 0.00 0.00 0.00 80 1012.4
20260905111611 76 131 0.0 0.0 0.00 0.00 0.00 79 1012.3
20260905104554 77 131 0.0 0.0 0.00 0.00 0.00 78 1012.2
20260905103052 77 131 0.0 1.0 0.00 0.00 0.00 76 1012.1
20260905101552 78 131 0.0 1.0 0.00 0.00 0.00 76 1011.9
20260905100050 78 131 0.0 0.0 0.00 0.00 0.00 76 1011.8
20260905094600 79 131 0.0 1.0 0.00 0.00 0.00 76 1011.8
20260905093046 79 131 0.0 1.0 0.00 0.00 0.00 75 1011.8
20260905091548 79 131 0.0 1.0 0.00 0.00 0.00 73 1012.0
20260905090044 79 131 0.0 2.0 0.00 0.00 0.00 73 1012.0
20260905084547 79 133 0.0 2.0 0.00 0.00 0.00 73 1011.7
20260905083048 79 149 0.0 2.0 0.00 0.00 0.00 74 1011.8
20260905081553 79 149 0.0 2.0 0.00 0.00 0.00 74 1011.8
20260905080053 79 147 0.0 2.0 0.00 0.00 0.00 73 1011.6
20260905074542 79 147 0.0 0.0 0.00 0.00 0.00 73 1011.8
20260905073045 80 147 0.0 1.0 0.00 0.00 0.00 74 1011.8
20260905071541 80 147 0.0 0.0 0.00 0.00 0.00 72 1011.7
20260905070045 80 147 0.0 1.0 0.00 0.00 0.00 71 1011.5
20260905064538 80 147 0.0 0.0 0.00 0.00 0.00 72 1011.8
20260905063036 80 147 0.0 0.0 0.00 0.00 0.00 73 1011.8
20260905061549 81 147 0.0 0.0 0.00 0.00 0.00 70 1011.7
20260905060028 81 147 0.0 0.0 0.00 0.00 0.00 69 1011.8
20260905054526 82 147 0.0 0.0 0.00 0.00 0.00 67 1011.8
20260905053024 82 147 0.0 0.0 0.00 0.00 0.00 66 1011.5
20260905051529 83 147 0.0 0.0 0.00 0.00 0.00 66 1011.8
20260905050018 83 147 0.0 0.0 0.00 0.00 0.00 65 1011.6
20260905044523 84 147 0.0 1.0 0.00 0.00 0.00 64 1011.7
20260905043017 84 147 0.0 0.0 0.00 0.00 0.00 63 1011.8
20260905041517 85 147 0.0 0.0 0.00 0.00 0.00 62 1011.8
20260905040021 86 147 0.0 1.0 0.00 0.00 0.00 61 1011.9
20260905034520 86 147 0.0 0.0 0.00 0.00 0.00 59 1011.8
20260905033015 87 147 0.0 1.0 0.00 0.00 0.00 59 1011.5
20260905031515 87 144 0.0 1.0 0.00 0.00 0.00 58 1011.5
20260905030014 88 144 0.0 1.0 0.00 0.00 0.00 58 1011.3
20260905024513 88 144 0.0 1.0 0.00 0.00 0.00 56 1011.1
20260905023012 89 144 0.0 0.0 0.00 0.00 0.00 55 1011.0
20260905021513 89 144 0.0 1.0 0.00 0.00 0.00 55 1011.0
20260905020012 91 144 0.0 1.0 0.00 0.00 0.00 53 1010.7
20260905014512 92 144 0.0 1.0 0.00 0.00 0.00 51 1010.5
20260905013011 93 144 0.0 1.0 0.00 0.00 0.00 50 1010.4
20260905011513 93 144 0.0 1.0 0.00 0.00 0.00 47 1010.1
20260905010017 94 152 0.0 2.0 0.00 0.00 0.00 46 1010.0
20260905004510 95 155 0.0 3.0 0.00 0.00 0.00 45 1009.9
20260905003017 96 178 2.0 6.0 0.00 0.00 0.00 44 1009.9
20260905001509 97 156 1.0 7.0 0.00 0.00 0.00 43 1009.9
20260905000025 98 140 2.0 9.0 0.00 0.00 0.00 42 1010.0